カタログに戻る

FENGYUN 1C DEB

運用中SSO
NORAD 31219·DEBRIS·🇨🇳 China

打ち上げ May 10, 1999 から Taiyuan Satellite Launch Center

Loading…

次のパス (今後24時間)

TLE

最新Source: Space-Track

元期: Sep 13, 2026, 13:58 UTC

1 31219U 99025BKZ 26256.58208243  .00001587  00000-0  81756-3 0  9995
2 31219  99.2718 282.0694 0079223 126.0317 234.8230 14.15084195994550

AllMySatでFENGYUN 1C DEBをリアルタイム追跡

Download on the App Store